[[{"header":{"parameterUnit":"m.s-1","parameterCategory":1,"la1":30.2991,"la2":30.254,"lo1":-89.0895,"lo2":-89.0444,"dx":0.0017,"dy":0.0017,"nx":28,"ny":28,"refTime":"2023-02-06T09:00:00:Z","depth":0,"parameterNumber":2,"parameterNumberName":"U-component_of_WINDS"},"data":[0,0,0,0,0,0,0,0,0,0,0,0,0,0,0,0,0,0,0,0,0,0,0,0,0,0,0,0,0,0,0,0,0,0,0,0,0,0,0,0,0,0,0,0,0,0,0,0,0,0,0,0,0,0,0,0,0,0,-2.3728,-2.3729,0,-2.3772,-2.3773,-2.3773,-2.3725,-2.3724,-2.3722,-2.372,-2.3767,-2.377,-2.3773,0,0,0,0,0,0,0,0,0,0,0,0,0,-2.3605,-2.3608,-2.3728,-2.3729,-2.3729,-2.3772,-2.3773,-2.3773,-2.3726,-2.3724,-2.3721,-2.3719,-2.3766,-2.377,-2.3773,0,0,0,0,0,0,0,0,0,0,0,0,0,-2.3655,-2.3609,-2.3728,-2.3711,-2.3709,-2.3772,-2.3773,-2.3773,-2.3726,-2.3723,-2.3721,-2.3718,-2.3765,-2.3769,-2.3774,-2.3856,0,0,-2.3787,-2.3789,0,0,0,0,0,0,0,0,-2.3652,-2.366,-2.3713,-2.3712,-2.3711,-2.374,-2.3746,-2.3801,-2.3727,-2.372,-2.372,-2.3717,-2.3761,-2.3765,-2.378,-2.3858,-2.386,-2.3788,-2.379,-2.3792,-2.3794,0,0,0,0,0,0,0,-2.3649,-2.3657,-2.3745,-2.3713,-2.3712,-2.3701,-2.3705,-2.3757,-2.3755,-2.372,-2.3717,-2.3723,-2.376,-2.3775,-2.378,-2.3861,-2.3788,-2.3792,-2.3794,-2.3796,-2.4011,-2.4014,0,0,0,0,0,0,-2.3647,-2.3655,-2.3744,-2.3747,-2.3674,-2.3706,-2.371,-2.3734,-2.3754,-2.3755,-2.3725,-2.372,-2.3769,-2.3775,-2.3782,-2.3881,-2.3792,-2.3796,-2.3799,-2.4008,-2.4011,-2.4015,0,0,0,0,0,0,-2.3645,-2.3655,-2.3742,-2.37,-2.371,-2.3711,-2.3738,-2.3736,-2.3752,-2.3758,-2.3758,-2.3741,-2.3767,-2.3776,-2.3838,-2.3882,-2.3798,-2.3802,-2.4004,-2.4009,-2.4013,-2.4079,0,0,0,0,0,0,-2.3641,-2.3655,-2.3686,-2.3701,-2.3713,-2.3798,-2.374,-2.3739,-2.3759,-2.3754,-2.3773,-2.3774,-2.3766,-2.3832,-2.3843,-2.3886,-2.3806,-2.4,-2.4006,-2.4012,-2.4073,-2.4085,-2.4096,0,0,0,0,0,-2.3637,-2.3703,-2.3687,-2.3698,-2.3751,-2.38,-2.3807,-2.3795,-2.3763,-2.3794,-2.3799,-2.3773,-2.3875,-2.3839,-2.385,-2.3896,-2.3998,-2.4005,-2.4011,-2.4068,-2.4083,-2.4095,0,0,0,0,0,0,-2.3693,-2.3704,-2.3688,-2.376,-2.3779,-2.3792,-2.3831,-2.3811,-2.3841,-2.3835,-2.382,-2.3825,-2.3892,-2.39,-2.3859,-2.3978,-2.3931,-2.3941,-2.397,-2.3984,-2.3995,-2.3993,-2.381,0,0,0,0,0,-2.3713,-2.3752,-2.376,-2.3823,-2.3833,-2.3831,-2.3852,-2.3841,-2.3861,-2.3869,-2.3878,-2.3899,-2.3935,-2.396,-2.3994,-2.4073,-2.4078,-2.4111,-2.4122,-2.4131,-2.414,-2.4185,-2.42,-2.4037,-2.4037,-2.4037,0,0,-2.3757,-2.3768,-2.3793,-2.3834,-2.3848,-2.3889,-2.3838,-2.3883,-2.3914,-2.3876,-2.3936,-2.3943,-2.3966,-2.4037,-2.4069,-2.4046,-2.4186,-2.414,-2.4147,-2.4151,-2.4193,-2.4209,-2.4222,-2.4042,-2.4041,-2.404,0,0,-2.3857,-2.3868,-2.3923,-2.3938,-2.3959,-2.3957,-2.397,-2.3986,-2.3989,-2.4048,-2.4022,-2.4058,-2.4121,-2.4138,-2.4156,-2.4263,-2.4241,-2.4274,-2.4334,-2.4378,-2.439,-2.4402,-2.4442,-2.4456,-2.4283,-2.4283,-2.4283,0,-2.3908,-2.3968,-2.3953,-2.4001,-2.4021,-2.3988,-2.4043,-2.4059,-2.4091,-2.4105,-2.4079,-2.4158,-2.417,-2.4247,-2.4273,-2.4287,-2.4303,-2.4273,-2.439,-2.4401,-2.4411,-2.4449,-2.4464,-2.4287,-2.4286,-2.4286,-2.4286,0,-2.4031,-2.4073,-2.4115,-2.4146,-2.417,-2.4221,-2.4215,-2.4242,-2.4229,-2.423,-2.4292,-2.4306,-2.4343,-2.4359,-2.4348,-2.4434,-2.442,-2.4392,-2.4345,-2.4431,-2.4467,-2.4481,-2.4293,-2.4291,-2.429,-2.4289,0,0,-2.4169,-2.4191,-2.4207,-2.4221,-2.4242,-2.4275,-2.4325,-2.4361,-2.4384,-2.4407,-2.445,-2.4504,-2.4479,-2.4498,-2.4488,-2.4526,-2.4612,-2.4493,-2.4493,-2.4516,-2.471,-2.4733,-2.475,-2.4597,-2.46,-2.4602,-2.4709,0,-2.4271,-2.4357,-2.4346,-2.4429,-2.4469,-2.4438,-2.4482,-2.4501,-2.4503,-2.4537,-2.454,-2.4579,-2.4541,-2.4553,-2.4589,-2.4594,-2.4651,-2.4586,-2.4638,-2.464,-2.4636,-2.4768,-2.4792,-2.4893,-2.4723,-2.4725,-2.4727,0,-2.4401,-2.4429,-2.4517,-2.4533,-2.4549,-2.4589,-2.4621,-2.4654,-2.4674,-2.4673,-2.4695,-2.4678,-2.473,-2.4681,-2.4753,-2.4708,-2.4729,-2.4735,-2.4738,-2.4744,-2.469,-2.478,-2.4924,-2.494,-2.4748,-2.4746,-2.4745,0,-2.4495,-2.4554,-2.4615,-2.4628,-2.4647,-2.4676,-2.4686,-2.4704,-2.4726,-2.4754,-2.4769,-2.4803,-2.4822,-2.4849,-2.4842,-2.4807,-2.4916,-2.4866,-2.4918,-2.4919,-2.4944,-2.4943,-2.5096,-2.4955,-2.4954,-2.4954,-2.4954,0,-2.4612,-2.4667,-2.4657,-2.4695,-2.4756,-2.4742,-2.4804,-2.481,-2.4826,-2.4865,-2.484,-2.4877,-2.4865,-2.4902,-2.4896,-2.4958,-2.4966,-2.4968,-2.4966,-2.4971,-2.4971,-2.4986,-2.498,-2.4958,-2.4957,-2.4956,-2.4956,0,-2.4728,-2.4723,-2.4787,-2.4801,-2.4805,-2.485,-2.4862,-2.4898,-2.4898,-2.4947,-2.4958,-2.4959,-2.5001,-2.4996,-2.5043,-2.504,-2.5116,-2.5105,-2.511,-2.5108,-2.5161,-2.5157,-2.5331,-2.5354,-2.5195,-2.5197,-2.5198,0,-2.4803,-2.4845,-2.4863,-2.4887,-2.4899,-2.4937,-2.496,-2.4948,-2.4973,-2.5,-2.5033,-2.5072,-2.5104,-2.5172,-2.5178,-2.5214,-2.5205,-2.5263,-2.521,-2.5214,-2.5208,-2.5207,-2.5212,-2.5274,-2.5276,-2.5278,-2.5279,0,-2.4938,-2.4934,-2.4967,-2.5001,-2.5028,-2.5054,-2.5077,-2.5098,-2.5088,-2.5118,-2.516,-2.5185,-2.5233,-2.5273,-2.5307,-2.5318,-2.5298,-2.5295,-2.5309,-2.5316,-2.5318,-2.532,-2.514,-2.5292,-2.529,-2.5289,-2.5289,-2.5288,-2.5038,-2.5074,-2.5093,-2.5131,-2.5147,-2.5169,-2.5204,-2.5208,-2.5243,-2.5281,-2.5272,-2.532,-2.534,-2.5384,-2.5399,-2.5437,-2.5416,-2.5436,-2.5442,-2.5448,-2.5455,-2.531,-2.5443,-2.5443,-2.5442,-2.5442,-2.5442,0,-2.5173,-2.5183,-2.5219,-2.5252,-2.5283,-2.5259,-2.5284,-2.5311,-2.5354,-2.5374,-2.5405,-2.5455,-2.5494,-2.5502,-2.554,-2.5569,-2.5561,-2.558,-2.5578,-2.5582,-2.5471,-2.5455,-2.5586,-2.5586,-2.5586,-2.5586,-2.5586,-2.5586,-2.5247,-2.5308,-2.5306,-2.5375,-2.5385,-2.5432,-2.5449,-2.5469,-2.5486,-2.5542,-2.5574,-2.5579,-2.5595,-2.5633,-2.5668,-2.567,-2.5686,-2.5709,-2.5707,-2.5604,-2.5589,-2.5576,-2.5561,-2.5712,-2.5712,-2.5815,-2.5816,-2.5817]},{"header":{"parameterUnit":"m.s-1","parameterCategory":1,"la1":30.2991,"la2":30.254,"lo1":-89.0895,"lo2":-89.0444,"dx":0.0017,"dy":0.0017,"nx":28,"ny":28,"refTime":"2023-02-06T09:00:00:Z","depth":0,"parameterNumber":3,"parameterNumberName":"V-component_of_WINDS"},"data":[0,0,0,0,0,0,0,0,0,0,0,0,0,0,0,0,0,0,0,0,0,0,0,0,0,0,0,0,0,0,0,0,0,0,0,0,0,0,0,0,0,0,0,0,0,0,0,0,0,0,0,0,0,0,0,0,0,0,-1.662,-1.662,0,-1.6636,-1.6636,-1.6636,-1.6608,-1.6607,-1.6606,-1.6605,-1.662,-1.6621,-1.6623,0,0,0,0,0,0,0,0,0,0,0,0,0,-1.6564,-1.6565,-1.662,-1.662,-1.6621,-1.6636,-1.6636,-1.6636,-1.6608,-1.6607,-1.6606,-1.6605,-1.662,-1.6621,-1.6623,0,0,0,0,0,0,0,0,0,0,0,0,0,-1.6585,-1.6565,-1.662,-1.6608,-1.6607,-1.6636,-1.6636,-1.6636,-1.6608,-1.6607,-1.6605,-1.6604,-1.6619,-1.6621,-1.6623,-1.6663,0,0,-1.6629,-1.663,0,0,0,0,0,0,0,0,-1.6584,-1.6587,-1.661,-1.6609,-1.6608,-1.6618,-1.6622,-1.6645,-1.6609,-1.6608,-1.6605,-1.6603,-1.6621,-1.6622,-1.6628,-1.6664,-1.6665,-1.6629,-1.663,-1.6631,-1.6631,0,0,0,0,0,0,0,-1.6582,-1.6586,-1.6626,-1.661,-1.6609,-1.6602,-1.6603,-1.6626,-1.6622,-1.6608,-1.6606,-1.6608,-1.662,-1.6627,-1.6628,-1.6665,-1.6629,-1.6631,-1.6632,-1.6633,-1.6734,-1.6735,0,0,0,0,0,0,-1.6582,-1.6585,-1.6626,-1.6627,-1.6592,-1.6604,-1.6605,-1.6617,-1.6622,-1.6621,-1.6609,-1.6607,-1.6624,-1.6626,-1.6629,-1.6676,-1.6631,-1.6633,-1.6634,-1.6732,-1.6734,-1.6736,0,0,0,0,0,0,-1.6581,-1.6586,-1.6625,-1.6605,-1.661,-1.6606,-1.6619,-1.6618,-1.6624,-1.6623,-1.6622,-1.6617,-1.6623,-1.6626,-1.6655,-1.6676,-1.6634,-1.6635,-1.673,-1.6733,-1.6735,-1.6772,0,0,0,0,0,0,-1.658,-1.6586,-1.6602,-1.6606,-1.6611,-1.6652,-1.662,-1.6619,-1.6628,-1.6625,-1.663,-1.6629,-1.6622,-1.6652,-1.6657,-1.6678,-1.6637,-1.6728,-1.6731,-1.6734,-1.6769,-1.6775,-1.678,0,0,0,0,0,-1.6578,-1.6612,-1.6603,-1.6608,-1.6631,-1.6653,-1.6656,-1.6647,-1.663,-1.6645,-1.6644,-1.6629,-1.6673,-1.6655,-1.666,-1.6683,-1.6727,-1.6731,-1.6734,-1.6766,-1.6774,-1.678,0,0,0,0,0,0,-1.661,-1.6612,-1.6602,-1.6639,-1.6646,-1.6648,-1.6668,-1.6656,-1.6668,-1.6664,-1.6653,-1.6654,-1.6685,-1.6687,-1.6667,-1.6722,-1.6697,-1.6702,-1.672,-1.6727,-1.6733,-1.6732,-1.6638,0,0,0,0,0,-1.6622,-1.664,-1.664,-1.6672,-1.6676,-1.6671,-1.6681,-1.6673,-1.668,-1.6683,-1.6684,-1.6691,-1.6706,-1.6717,-1.6731,-1.6768,-1.6769,-1.6786,-1.6792,-1.6797,-1.6801,-1.6821,-1.6828,-1.6747,-1.6747,-1.6747,0,0,-1.6645,-1.6648,-1.6661,-1.6679,-1.6683,-1.6702,-1.6674,-1.6695,-1.6709,-1.6686,-1.6713,-1.6714,-1.6721,-1.6754,-1.6769,-1.6757,-1.6824,-1.6801,-1.6805,-1.6807,-1.6825,-1.6833,-1.684,-1.6749,-1.6749,-1.6749,0,0,-1.6698,-1.6702,-1.6729,-1.6734,-1.6742,-1.6738,-1.6745,-1.6748,-1.6748,-1.6775,-1.6759,-1.6774,-1.6801,-1.6807,-1.6813,-1.6867,-1.6853,-1.6871,-1.6903,-1.6922,-1.6928,-1.6934,-1.6953,-1.696,-1.6875,-1.6876,-1.6876,0,-1.6726,-1.6754,-1.6744,-1.6766,-1.6774,-1.6755,-1.6781,-1.6787,-1.6798,-1.6804,-1.679,-1.6823,-1.6826,-1.686,-1.6873,-1.6879,-1.6886,-1.6871,-1.6928,-1.6934,-1.6939,-1.6957,-1.6964,-1.6878,-1.6877,-1.6877,-1.6877,0,-1.6788,-1.6808,-1.6828,-1.684,-1.6851,-1.6875,-1.6868,-1.688,-1.6871,-1.6869,-1.6896,-1.6899,-1.6913,-1.6921,-1.6913,-1.6954,-1.6946,-1.693,-1.6905,-1.6949,-1.6965,-1.6972,-1.6881,-1.688,-1.6879,-1.6879,0,0,-1.6862,-1.6868,-1.6876,-1.6881,-1.6887,-1.6902,-1.6925,-1.6939,-1.6949,-1.6957,-1.6976,-1.6998,-1.6984,-1.6991,-1.6983,-1.7,-1.7042,-1.6982,-1.6982,-1.6993,-1.7087,-1.7099,-1.7107,-1.7033,-1.7034,-1.7035,-1.7086,0,-1.6914,-1.6955,-1.6946,-1.6985,-1.7003,-1.6984,-1.7003,-1.7009,-1.7008,-1.7022,-1.7019,-1.7036,-1.7015,-1.702,-1.7035,-1.7034,-1.7061,-1.703,-1.705,-1.7051,-1.7049,-1.7115,-1.7128,-1.7176,-1.7093,-1.7094,-1.7095,0,-1.6981,-1.6992,-1.7033,-1.7036,-1.7043,-1.7061,-1.7073,-1.7087,-1.7093,-1.709,-1.7098,-1.7086,-1.7109,-1.7083,-1.7113,-1.7092,-1.71,-1.71,-1.7102,-1.7104,-1.7076,-1.7119,-1.7191,-1.7199,-1.7105,-1.7104,-1.7103,0,-1.7031,-1.7056,-1.7083,-1.7088,-1.7092,-1.7105,-1.7108,-1.7112,-1.7121,-1.7131,-1.7136,-1.7149,-1.7156,-1.7165,-1.7157,-1.714,-1.7189,-1.7163,-1.7187,-1.7187,-1.7198,-1.7198,-1.7273,-1.7203,-1.7203,-1.7203,-1.7203,0,-1.709,-1.7116,-1.7106,-1.7123,-1.7151,-1.714,-1.7168,-1.7168,-1.7172,-1.7188,-1.7172,-1.7188,-1.7176,-1.7191,-1.7185,-1.721,-1.7213,-1.7212,-1.721,-1.7213,-1.7213,-1.7218,-1.7215,-1.7205,-1.7204,-1.7204,-1.7203,0,-1.7151,-1.7145,-1.7174,-1.7175,-1.7176,-1.7197,-1.7198,-1.7213,-1.721,-1.7231,-1.7235,-1.723,-1.7246,-1.7239,-1.7255,-1.7251,-1.7284,-1.7278,-1.7282,-1.7281,-1.7305,-1.7303,-1.7387,-1.7397,-1.732,-1.7321,-1.7321,0,-1.7189,-1.7208,-1.7212,-1.7222,-1.7225,-1.7241,-1.725,-1.724,-1.7249,-1.7257,-1.7272,-1.7286,-1.7297,-1.7324,-1.7321,-1.7334,-1.7328,-1.7356,-1.7329,-1.7332,-1.7328,-1.7327,-1.7329,-1.7361,-1.7362,-1.7363,-1.7364,0,-1.7258,-1.7254,-1.7267,-1.7279,-1.729,-1.73,-1.7307,-1.7316,-1.7306,-1.7318,-1.7334,-1.7343,-1.7359,-1.7374,-1.7385,-1.7387,-1.7374,-1.7372,-1.7378,-1.7382,-1.7384,-1.7383,-1.7297,-1.737,-1.7369,-1.7369,-1.7369,-1.7368,-1.7308,-1.7324,-1.7329,-1.7344,-1.7349,-1.7357,-1.7371,-1.7369,-1.7383,-1.7396,-1.7389,-1.7408,-1.7412,-1.7426,-1.7429,-1.7443,-1.7432,-1.7441,-1.7444,-1.7446,-1.7449,-1.7381,-1.7445,-1.7445,-1.7445,-1.7445,-1.7445,0,-1.7376,-1.7378,-1.7392,-1.7403,-1.7415,-1.7402,-1.7409,-1.742,-1.7437,-1.7442,-1.7453,-1.7472,-1.7486,-1.7484,-1.7497,-1.7508,-1.7503,-1.7512,-1.7511,-1.7512,-1.7459,-1.7452,-1.7516,-1.7516,-1.7516,-1.7516,-1.7516,-1.7516,-1.7413,-1.7439,-1.7436,-1.7464,-1.7466,-1.7484,-1.749,-1.7496,-1.75,-1.7522,-1.7533,-1.7532,-1.7534,-1.7547,-1.7559,-1.7558,-1.7563,-1.7575,-1.7572,-1.7523,-1.7515,-1.7509,-1.7502,-1.7576,-1.7576,-1.7624,-1.7624,-1.7624]}]]